User: anonymous
Location: Unspecified
(0.0000°N, 0.0000°E)
Time: 23:44:48
(UTC+02:00)
Language:

Gbstr 26 Del rocket - Orbit

View from above orbital plane
View from above orbital plane
View from above satellite
View from above satellite

Ground track
Ground track

The orbit data is extracted from the following two-line orbital elements,

1 25876U 99041E   14261.45320352  .00001032  00000-0  21956-3 0  4648
2 25876 051.7647 309.5810 0540353 348.1665 109.4124 14.02194270773805
Epoch (UTC): 18 September 2014 10:52:36
Eccentricity: 0.0540353
inclination: 51.7647°
perigee height: 493 km
apogee height: 1279 km
right ascension of ascending node: 309.5810°
argument of perigee: 348.1665°
revolutions per day: 14.02194270
mean anomaly at epoch: 109.4124°
orbit number at epoch: 77380

The dashed part of the orbit path shows where the satellite is in the earth's shadow,  

DLR